User: anonymous   Login
Location: Unspecified
(0.0000°N, 0.0000°E)
Time: 12:21:50
(UTC+00:00)
Language:

GAS SHIELD (DEBRIS) - Orbit

View from above orbital plane
View from above orbital plane
View from above satellite
View from above satellite

Ground track
Ground track

The orbit data is extracted from the following two-line orbital elements,

1 27612U 02058H   17293.57898117 +.00000041 +00000-0 +24677-4 0  9996
2 27612 064.5569 348.5001 0028864 344.8065 015.2169 14.79279038799575
Epoch (UTC): 20 October 2017 13:53:43
Eccentricity: 0.0028864
inclination: 64.5569°
perigee height: 611 km
apogee height: 652 km
right ascension of ascending node: 348.5001°
argument of perigee: 344.8065°
revolutions per day: 14.79279038
mean anomaly at epoch: 15.2169°
orbit number at epoch: 79957

The dashed part of the orbit path shows where the satellite is in the earth's shadow,  

DLR